EW0616 Weather Reports


Display with metric or nautical units.
time (UTC)temp
F
wind
direction
speed
MPH
gust
MPH
rain 1hr
in
rain 24hr
in
rain mn
in
humidity
%
barometer
mb
20260506214312 67 357 3.0 7.0 0.00 0.00 0.00 73 1015.2
20260506213311 68 320 4.0 9.0 0.00 0.00 0.00 72 1015.1
20260506212311 70 285 2.0 11.0 0.00 0.00 0.00 71 1014.9
20260506210411 71 352 1.0 4.0 0.00 0.00 0.00 70 1014.8
20260506205410 72 325 3.0 9.0 0.00 0.00 0.00 71 1014.8
20260506204510 72 346 2.0 5.0 0.00 0.00 0.00 72 1014.8
20260506203511 72 345 4.0 9.0 0.00 0.00 0.00 72 1015.2
20260506202610 72 305 5.0 9.0 0.00 0.00 0.00 72 1015.1
20260506200711 72 314 3.0 6.0 0.00 0.00 0.00 74 1015.1
20260506195809 72 328 5.0 9.0 0.00 0.00 0.00 74 1014.9
20260506194810 73 322 2.0 4.0 0.00 0.00 0.00 74 1014.8
20260506192812 79 334 5.0 9.0 0.00 0.00 0.00 69 1014.5
20260506191811 80 47 1.0 3.0 0.00 0.00 0.00 70 1014.4
20260506190812 80 46 0.0 1.0 0.00 0.00 0.00 70 1014.5
20260506185812 81 262 0.0 3.0 0.00 0.00 0.00 69 1014.8
20260506184910 80 134 0.0 0.0 0.00 0.00 0.00 69 1014.8
20260506182910 79 4 0.0 0.0 0.00 0.00 0.00 71 1014.6
20260506180912 77 17 0.0 0.0 0.00 0.00 0.00 72 1014.7
20260506175911 76 58 0.0 4.0 0.00 0.00 0.00 74 1014.7
20260506174913 75 151 0.0 3.0 0.00 0.00 0.00 74 1014.7
20260506173911 73 169 0.0 0.0 0.00 0.00 0.00 76 1014.8
20260506172910 72 45 0.0 1.0 0.00 0.00 0.00 76 1014.8
20260506172010 71 356 1.0 4.0 0.00 0.00 0.00 77 1015.0
20260506171011 71 71 0.0 3.0 0.00 0.00 0.00 78 1014.9
20260506170011 69 84 0.0 4.0 0.00 0.00 0.00 79 1015.0
20260506165010 68 109 0.0 3.0 0.00 0.00 0.00 81 1015.4
20260506164108 66 6 2.0 5.0 0.00 0.00 0.00 82 1015.5
20260506163111 66 333 0.0 3.0 0.00 0.00 0.00 82 1015.7
20260506162110 67 349 5.0 8.0 0.00 0.00 0.00 81 1015.8
20260506161110 71 342 4.0 9.0 0.00 0.00 0.00 80 1016.1
20260506155111 77 349 0.0 1.0 0.00 0.00 0.00 81 1015.2
20260506153211 76 112 0.0 0.0 0.00 0.00 0.00 82 1015.0
20260506152212 77 67 0.0 0.0 0.00 0.00 0.00 82 1014.5
20260506151310 77 19 0.0 0.0 0.00 0.00 0.00 82 1014.5
20260506150410 76 157 0.0 0.0 0.00 0.00 0.00 82 1014.2
20260506145411 76 157 0.0 2.0 0.00 0.00 0.00 82 1013.9
20260506144426 76 135 1.0 3.0 0.00 0.00 0.00 82 1013.9
20260506143410 76 135 0.0 0.0 0.00 0.00 0.00 83 1013.8
20260506141410 75 136 0.0 2.0 0.00 0.00 0.00 83 1013.4
20260506135411 75 90 0.0 0.0 0.00 0.00 0.00 84 1013.4
20260506134510 75 157 0.0 0.0 0.00 0.00 0.00 84 1012.8
20260506133511 75 156 0.0 2.0 0.00 0.00 0.00 84 1013.1
20260506132510 74 135 0.0 0.0 0.00 0.00 0.00 84 1012.8
20260506131511 74 154 0.0 3.0 0.00 0.00 0.00 85 1012.9
20260506130511 74 202 0.0 0.0 0.00 0.00 0.00 85 1012.8
20260506125510 74 157 0.0 0.0 0.00 0.00 0.00 85 1012.7
20260506124511 74 97 0.0 0.0 0.00 0.00 0.00 85 1012.5
20260506123511 73 157 0.0 0.0 0.00 0.00 0.00 85 1012.6
20260506122511 74 157 0.0 0.0 0.00 0.00 0.00 85 1012.6
20260506120625 74 157 0.0 0.0 0.00 0.00 0.00 84 1012.7
20260506115610 74 157 0.0 0.0 0.00 0.00 0.00 84 1012.5
20260506114610 74 157 0.0 0.0 0.00 0.00 0.00 84 1012.4
20260506113708 74 157 0.0 0.0 0.00 0.00 0.00 84 1012.5
20260506112709 74 161 0.0 0.0 0.00 0.00 0.00 84 1012.5
20260506111710 74 135 0.0 0.0 0.00 0.00 0.00 84 1012.5
20260506110709 74 135 0.0 0.0 0.00 0.00 0.00 84 1012.4
20260506105730 74 135 0.0 0.0 0.00 0.00 0.00 84 1012.4
20260506104828 74 135 0.0 0.0 0.00 0.00 0.00 84 1012.2
20260506101930 74 162 1.0 4.0 0.00 0.00 0.00 84 1011.8
20260506100930 74 168 1.0 4.0 0.00 0.00 0.00 84 1011.8
20260506095931 74 168 3.0 5.0 0.00 0.00 0.00 84 1011.8
20260506095029 74 174 2.0 4.0 0.00 0.00 0.00 84 1011.6
20260506094031 74 159 1.0 3.0 0.00 0.00 0.00 84 1011.6
20260506093129 74 175 2.0 4.0 0.00 0.00 0.00 84 1011.4
20260506092131 74 162 2.0 5.0 0.00 0.00 0.00 84 1011.5
20260506091228 74 175 4.0 6.0 0.00 0.00 0.00 84 1011.3
20260506085328 74 165 3.0 4.0 0.00 0.00 0.00 84 1011.2
20260506084328 74 151 3.0 4.0 0.00 0.00 0.00 84 1011.2
20260506083330 74 168 4.0 7.0 0.00 0.00 0.00 84 1011.2
20260506081329 74 169 2.0 5.0 0.00 0.00 0.00 84 1011.3
20260506080330 74 172 2.0 4.0 0.00 0.00 0.00 84 1011.3
20260506073428 74 152 3.0 6.0 0.00 0.00 0.00 84 1011.7
20260506072428 75 159 1.0 4.0 0.00 0.00 0.00 84 1011.7
20260506071528 75 155 4.0 7.0 0.00 0.00 0.00 83 1011.9
20260506061545 75 177 4.0 8.0 0.00 0.00 0.00 83 1011.9
20260506060631 75 167 3.0 7.0 0.00 0.00 0.00 83 1011.8
20260506050830 75 143 2.0 3.0 0.00 0.00 0.00 82 1012.0
20260506045023 76 149 6.0 10.0 0.00 0.00 0.00 82 1011.9
20260506044025 76 149 4.0 9.0 0.00 0.00 0.00 82 1012.0
20260506043123 76 150 4.0 9.0 0.00 0.00 0.00 82 1012.0
20260506042124 76 155 4.0 8.0 0.00 0.00 0.00 82 1011.8
20260506041125 76 148 2.0 5.0 0.00 0.00 0.00 82 1011.8
20260506040125 76 146 2.0 5.0 0.00 0.00 0.00 82 1011.7
20260506035124 76 157 3.0 6.0 0.00 0.00 0.00 82 1011.4
20260506034224 76 149 3.0 7.0 0.00 0.00 0.00 82 1011.5
20260506032225 76 135 1.0 3.0 0.00 0.00 0.00 82 1011.2
20260506031224 76 159 2.0 3.0 0.00 0.00 0.00 82 1011.1
20260506030241 76 157 0.0 2.0 0.00 0.00 0.00 82 1010.8
20260506024224 76 136 1.0 4.0 0.00 0.00 0.00 81 1010.7
20260506023240 76 169 0.0 2.0 0.00 0.00 0.00 81 1010.6
20260506022225 76 149 2.0 5.0 0.00 0.00 0.00 81 1010.3
20260506020326 76 135 0.0 2.0 0.00 0.00 0.00 80 1010.0
20260506015424 76 157 0.0 1.0 0.00 0.00 0.00 80 1009.9
20260506014424 77 135 0.0 0.0 0.00 0.00 0.00 79 1009.8
20260506013523 77 135 0.0 0.0 0.00 0.00 0.00 79 1009.8
20260506012526 78 135 0.0 0.0 0.00 0.00 0.00 77 1009.7
20260506011526 79 135 0.0 0.0 0.00 0.00 0.00 77 1009.8
20260506010624 79 135 0.0 0.0 0.00 0.00 0.00 76 1009.8
20260506005625 80 135 0.0 0.0 0.00 0.00 0.00 76 1009.8
20260506004641 80 141 0.0 1.0 0.00 0.00 0.00 75 1009.8
20260506003725 81 158 1.0 2.0 0.00 0.00 0.00 74 1009.6
20260506002743 81 157 0.0 2.0 0.00 0.00 0.00 74 1009.6
20260506001824 81 154 0.0 2.0 0.00 0.00 0.00 73 1009.5
20260505234924 82 160 1.0 4.0 0.00 0.00 0.00 72 1009.1
20260505233925 82 137 0.0 3.0 0.00 0.00 0.00 72 1009.2
20260505232925 82 167 2.0 5.0 0.00 0.00 0.00 71 1009.2
20260505231925 82 147 3.0 7.0 0.00 0.00 0.00 70 1009.3
20260505230925 82 173 2.0 4.0 0.00 0.00 0.00 71 1009.3
20260505225922 82 160 4.0 7.0 0.00 0.00 0.00 71 1009.1
20260505225022 82 151 5.0 10.0 0.00 0.00 0.00 71 1009.1
20260505223025 82 178 3.0 7.0 0.00 0.00 0.00 69 1008.9
20260505222025 83 148 5.0 11.0 0.00 0.00 0.00 70 1009.1
20260505220124 83 153 4.0 6.0 0.00 0.00 0.00 69 1009.2
20260505215126 83 182 5.0 8.0 0.00 0.00 0.00 68 1009.3